RH
23 23 22 20 17 18 18 9 4 3 3 4 4 5 8 13 14 13 12 12 11 10 7 4 3 2 2 3 3 3 3 3 4 5 6 7 8 9 9 9 9 9 10
24 19 17 13 12 16 16 6 4 4 7 10 12 14 14 14 13 11 10 8 4 2 2 2 2 2 2 2 2 2 2 3 3 4 5 6 7 8 10 10 11 12 12
27 19 15 12 10 10 9 5 5 8 13 16 16 15 14 12 11 8 5 3 2 2 1 1 2 2 2 2 2 2 2 2 2 3 3 4 5 6 8 10 12 12 12
27 20 11 9 8 7 6 7 11 14 17 17 16 14 12 11 8 5 3 2 2 1 1 2 2 2 2 2 2 3 2 2 2 2 2 3 3 4 5 7 8 9 10
23 12 7 7 7 7 7 10 16 18 18 16 15 13 11 8 5 3 2 2 2 1 2 2 2 2 2 2 2 2 2 2 2 2 3 3 3 3 4 4 5 6 9
16 9 9 8 9 11 14 16 18 20 18 16 14 12 9 5 3 3 2 2 2 2 2 2 2 2 2 2 2 2 2 2 2 2 2 2 3 3 3 4 4 5 6
10 9 10 10 14 15 19 21 22 20 18 16 14 11 6 4 4 3 2 2 2 2 2 2 2 3 3 3 3 2 2 2 2 2 2 2 2 2 3 4 4 4 4
10 9 9 12 15 18 22 24 23 20 18 16 14 11 6 4 3 2 2 2 2 2 2 2 3 4 5 5 5 4 4 3 2 2 2 2 2 2 3 4 3 3 4
10 10 11 12 15 19 24 25 23 21 18 16 11 7 6 5 3 2 2 2 2 2 2 3 4 5 6 6 6 5 4 3 3 2 2 2 2 2 3 5 4 3 4
10 10 12 15 17 20 24 26 24 22 20 16 8 6 5 4 3 3 2 2 2 3 4 6 6 6 5 5 6 6 6 5 4 3 3 3 3 3 3 6 5 4 5
12 13 15 18 19 22 25 27 26 22 21 15 10 6 5 4 4 3 3 4 5 8 10 9 7 5 4 4 4 6 8 8 8 7 5 4 3 3 3 4 5 5 7
14 15 16 19 22 25 28 29 28 24 21 15 11 6 5 4 4 5 5 6 8 10 10 6 4 4 4 4 5 5 6 6 7 9 11 13 10 6 5 5 5 5 8
16 18 28 31 28 28 30 33 31 25 20 16 11 8 5 5 5 5 6 7 8 8 7 6 6 6 6 6 8 8 11 12 10 8 8 9 14 24 22 12 9 10 7
29 36 36 36 40 41 41 40 34 27 21 16 11 8 6 6 6 6 6 6 5 5 6 7 8 7 7 7 8 8 8 10 12 14 16 16 15 15 18 28 32 15 13
41 45 42 41 41 42 42 42 35 27 20 15 10 8 7 7 6 7 6 6 7 10 9 8 8 9 10 10 9 9 10 13 16 17 18 20 21 20 21 20 21 33 46
47 49 51 54 54 54 50 41 34 25 19 14 11 8 7 7 7 7 6 7 13 14 11 12 13 14 13 11 12 17 21 24 25 27 31 31 30 32 32 33 33 28 30
56 57 60 60 61 60 54 50 38 25 19 15 13 9 9 8 8 8 8 8 9 10 20 24 24 23 22 26 31 33 31 30 30 28 28 33 48 56 60 64 61 59 52
56 74 72 70 63 61 59 51 39 27 20 18 14 10 9 9 8 9 12 11 13 26 34 38 36 32 32 44 50 38 32 35 28 25 31 44 58 66 67 71 70 78 73
64 72 76 74 68 63 56 53 48 34 26 21 15 12 10 10 11 22 24 29 30 32 37 33 30 29 50 59 47 26 18 7 8 22 31 42 54 56 61 68 64 72 81
59 58 56 52 50 47 44 39 44 36 24 19 15 13 11 13 18 21 17 23 30 37 41 40 45 54 42 16 15 13 8 9 15 17 22 38 50 45 57 71 60 62 73
59 55 47 42 41 40 39 35 31 25 20 18 16 14 13 13 25 26 26 17 19 22 24 38 46 18 9 11 11 9 8 16 17 18 18 15 22 32 39 46 48 61 63
86 75 62 53 40 35 34 33 29 25 24 23 18 16 15 16 16 15 17 16 15 15 13 13 10 9 9 10 10 8 11 17 16 13 12 12 13 17 32 28 23 22 21
87 83 68 60 57 49 39 33 30 29 26 21 19 17 17 16 20 25 23 17 16 16 14 12 9 9 10 11 9 11 16 18 17 14 13 13 14 15 14 13 12 12 12
83 81 76 65 60 55 46 38 34 30 26 23 21 19 18 19 26 32 34 16 15 15 12 9 10 10 10 10 9 17 18 17 16 13 9 10 12 12 11 13 14 11 12
68 82 79 67 57 51 44 38 33 30 27 25 24 24 27 39 42 26 19 18 17 14 12 14 11 11 11 9 14 18 16 14 12 9 9 9 8 12 16 16 14 15 20
62 66 74 75 70 63 60 60 59 54 47 38 33 36 38 48 30 20 18 16 12 16 14 14 16 14 10 11 18 19 15 12 9 10 10 7 8 15 16 16 16 16 11
Wind_Speed
14 14 12 11 10 10 9 9 8 5 3 2 1 2 3 4 5 8 10 12 12 13 12 12 11 12 12 13 13 14 15 15 15 16 17 17 17 16 16 17 17 18 17
17 15 15 12 11 11 10 9 7 5 4 2 3 4 6 7 8 10 11 11 11 11 11 12 12 13 13 14 14 14 15 15 16 16 17 17 17 17 17 17 17 18 19
17 16 15 15 13 13 11 9 7 6 4 4 5 6 8 9 10 10 11 11 11 12 11 11 11 12 12 13 13 14 15 16 16 16 17 17 18 17 17 17 17 17 18
17 16 16 16 15 13 10 8 6 6 5 5 6 8 9 11 11 11 11 11 12 12 12 11 11 11 13 13 14 15 16 17 17 17 18 18 18 18 18 18 18 19 18
17 15 13 14 13 11 10 8 6 6 6 6 6 8 10 11 12 13 13 13 13 13 13 12 13 14 14 15 16 16 17 18 18 17 16 18 18 18 19 20 20 19 18
19 18 13 13 12 10 8 7 8 7 7 7 8 9 11 12 14 15 14 14 13 13 13 13 14 15 16 16 17 18 19 20 19 19 18 18 18 19 19 19 19 19 20
19 19 14 13 11 10 9 8 10 11 9 9 9 10 12 13 15 16 14 13 13 14 13 14 14 15 16 18 18 19 20 21 21 22 22 22 21 21 21 21 20 20 20
20 18 16 14 13 12 10 9 9 10 11 13 14 13 13 15 16 16 15 14 14 14 14 14 15 16 17 18 18 19 20 20 21 22 22 23 23 23 23 23 22 21 21
21 19 18 15 14 13 12 10 10 10 11 11 14 17 18 18 17 15 15 14 14 14 15 15 16 17 17 19 20 20 20 21 22 22 22 23 24 24 24 24 25 24 23
24 22 18 17 17 16 14 12 11 12 12 12 12 14 18 19 18 16 15 15 15 15 16 16 17 18 19 19 21 22 22 22 23 24 25 25 25 25 26 26 25 25 24
24 22 21 20 19 18 16 15 14 14 14 13 14 15 16 17 17 17 18 18 18 18 18 18 18 19 20 20 21 22 23 24 25 26 27 27 27 28 27 26 25 25 25
27 25 23 22 21 20 18 17 17 15 15 15 16 16 16 16 16 17 18 19 20 20 20 20 21 22 23 23 23 24 25 26 26 27 28 28 29 29 29 28 27 25 25
29 27 25 24 23 22 21 19 19 18 18 18 18 18 18 18 19 19 20 21 20 20 20 20 22 23 24 25 25 26 27 27 28 30 31 31 30 30 30 30 30 29 28
31 27 26 25 25 24 23 22 21 21 21 20 19 19 20 20 21 21 21 21 20 21 21 22 23 24 26 27 27 27 29 30 30 31 31 33 33 33 33 32 32 32 30
31 31 30 29 29 28 26 25 24 24 23 22 21 21 21 22 22 22 21 22 22 23 23 24 26 26 27 28 29 30 31 32 32 32 33 34 35 36 36 35 35 34 34
35 34 33 33 32 32 30 27 26 26 25 24 24 23 24 24 24 23 22 24 25 25 26 28 28 29 30 29 30 31 33 34 35 36 36 36 35 36 37 37 38 38 38
39 37 36 35 32 31 29 29 29 28 28 27 26 26 25 26 25 25 25 26 27 28 29 30 31 32 32 32 32 34 35 38 39 38 38 38 37 36 37 37 37 39 40
42 39 38 37 36 35 34 33 32 32 30 28 29 28 28 28 28 27 27 29 30 32 32 33 34 34 35 35 35 37 39 40 41 40 39 39 39 39 40 41 43 42 42
43 41 40 39 38 37 37 35 34 34 32 32 32 32 30 30 30 29 30 32 33 34 34 36 36 37 36 38 38 40 41 42 42 41 42 42 42 43 44 44 45 44 44
48 45 43 41 39 39 39 38 36 36 35 35 34 34 33 32 33 32 31 34 36 37 38 38 38 38 38 41 42 41 42 42 42 42 42 43 43 45 44 44 46 46 44
52 48 46 44 42 42 42 41 40 38 38 36 36 35 35 35 35 35 35 36 38 39 40 40 40 42 42 43 45 43 42 43 43 44 44 43 43 45 45 46 46 46 47
54 50 47 47 45 44 43 43 42 41 40 38 38 38 38 37 37 37 39 40 41 42 42 43 44 44 44 45 46 47 43 43 44 45 45 45 44 44 44 45 45 48 49
48 49 47 47 48 47 46 46 45 44 43 42 42 42 41 40 40 40 41 44 44 45 45 45 46 46 46 47 47 46 46 46 47 45 45 43 43 43 44 46 49 53 52
45 45 48 47 46 46 45 45 44 43 43 43 44 44 44 44 44 44 45 47 46 46 45 44 46 47 49 49 47 47 48 48 49 46 44 42 42 42 44 49 53 53 52
43 47 47 47 46 45 44 44 43 43 43 43 43 44 44 47 48 48 49 49 48 46 45 47 49 51 50 49 47 47 48 47 45 45 42 41 39 43 47 51 52 53 53
38 42 46 48 48 48 49 49 49 49 49 48 47 47 51 51 48 49 50 49 46 46 47 49 52 52 51 49 48 49 48 45 45 45 42 39 42 46 49 50 53 52 50
Wind_Direction
229 233 235 238 246 258 268 278 280 283 274 261 307 299 299 341 354 357 355 340 334 328 328 334 337 333 330 328 329 324 321 322 318 317 318 317 315 315 315 314 314 313 311
234 242 246 245 251 257 266 273 277 275 277 309 321 326 337 342 349 346 336 330 331 332 333 330 331 330 328 326 324 322 322 318 315 315 315 315 315 313 310 310 311 311 309
238 246 252 252 255 257 260 261 255 262 279 305 331 334 336 337 336 339 331 328 327 325 327 326 324 323 326 324 323 321 319 320 319 316 315 315 315 313 310 308 305 304 303
241 250 258 256 254 253 245 246 248 265 286 313 322 329 330 330 329 328 322 326 327 326 322 320 321 325 323 320 319 321 322 322 322 320 319 318 317 316 313 310 307 304 302
243 245 239 239 240 241 238 232 245 266 285 300 311 324 324 323 324 321 321 327 328 325 321 322 325 321 319 320 321 321 322 322 320 316 315 314 315 315 315 313 309 307 304
238 236 224 224 228 233 242 255 262 264 280 293 314 321 319 323 319 315 320 325 324 318 318 324 323 321 324 325 323 324 324 320 316 315 315 315 313 313 312 310 307 305 304
232 233 226 222 230 231 239 256 275 285 292 304 312 317 317 316 312 312 318 323 319 313 315 319 319 320 323 323 326 324 323 321 321 319 319 317 314 311 308 304 303 301 301
227 226 229 224 233 234 239 249 264 284 302 311 314 313 311 310 309 311 317 317 310 309 312 314 316 321 321 321 321 320 320 319 318 317 316 315 314 311 308 305 300 298 296
225 224 227 229 236 243 247 254 264 275 285 296 302 307 309 307 305 313 314 309 305 308 312 316 319 319 317 317 316 314 315 314 314 313 313 313 312 311 308 304 301 298 294
227 229 230 234 238 243 252 260 267 274 279 282 281 290 295 299 305 309 304 302 305 309 312 316 315 314 312 312 313 314 315 315 315 316 315 314 311 309 307 305 301 299 295
227 229 229 234 241 248 253 262 267 274 280 279 281 281 286 292 298 301 301 303 306 307 309 310 309 307 307 311 312 313 314 316 316 315 313 313 311 308 305 303 301 299 297
229 230 232 235 240 249 257 264 269 275 279 280 281 281 282 286 289 292 295 297 300 304 306 307 309 311 313 314 314 315 315 314 313 310 309 310 310 307 305 304 301 295 293
233 232 231 236 242 247 254 261 266 272 274 277 280 282 284 287 289 291 293 296 298 300 304 308 307 307 308 310 312 312 313 313 312 311 311 310 308 308 308 306 301 298 294
228 233 237 240 245 250 253 258 264 267 269 272 277 280 285 287 289 290 291 294 298 301 303 303 303 304 306 307 308 309 310 310 310 309 309 309 308 307 305 304 303 301 297
226 231 235 241 245 250 254 258 261 264 267 271 274 277 280 282 285 287 292 296 298 299 301 301 301 303 305 306 308 309 310 309 308 306 305 304 305 304 302 302 301 299 296
226 230 235 240 244 248 253 256 260 261 264 267 270 272 274 277 281 285 291 293 293 296 298 299 301 304 303 303 304 306 305 304 304 304 304 306 301 299 301 302 301 298 294
225 230 234 239 241 245 250 255 257 260 260 263 266 267 270 274 279 283 286 289 292 294 296 298 300 301 300 302 303 302 303 302 302 303 304 302 299 300 300 298 297 297 295
229 230 235 239 245 251 254 255 256 256 259 263 265 268 270 274 278 282 286 289 291 294 296 296 297 298 300 300 300 301 302 302 302 302 303 300 300 300 301 300 299 298 295
233 234 237 241 245 249 255 257 260 262 264 264 266 268 272 277 280 282 284 286 288 290 292 294 295 295 296 296 297 299 301 301 301 303 302 300 298 299 299 298 297 296 294
236 235 238 242 246 250 253 255 258 260 263 265 269 273 275 276 276 277 281 284 286 288 290 291 292 290 291 293 295 298 297 299 301 300 298 298 297 297 296 295 296 295 294
237 237 237 239 242 245 249 252 255 256 259 262 265 268 270 272 275 279 282 283 285 286 287 286 286 287 290 292 293 298 298 299 302 300 300 298 296 296 295 295 294 294 292
240 240 241 242 242 243 244 248 251 254 257 260 264 266 268 270 274 278 281 283 284 285 285 284 285 286 289 294 296 295 295 298 300 300 299 297 297 295 294 294 295 295 294
241 241 240 241 243 246 248 249 250 252 254 255 257 260 262 264 268 274 278 280 281 283 283 284 285 288 290 293 295 295 294 295 296 296 295 296 295 295 295 298 299 297 295
244 243 244 244 246 248 250 253 256 257 258 259 261 263 265 267 271 274 275 276 278 279 282 283 285 287 290 293 294 294 297 298 298 297 298 298 296 296 300 301 301 299 296
243 242 243 245 248 250 251 253 255 257 259 261 262 264 267 273 277 279 280 281 283 283 284 287 288 289 292 293 293 294 297 297 297 299 298 296 295 302 302 302 300 297 296
243 243 243 245 246 248 251 253 255 256 258 260 262 265 270 273 273 276 278 280 280 281 283 284 286 289 292 292 294 296 296 297 297 298 296 296 299 301 302 301 298 297 296